Content
SEND FEEDBACK

Daily
Averages
Monthly
Summary
United States of America

EDINA, MISSOURI


Home > North America > United States > Missouri
Elevation: 780 feet     Latitude: 40 10N     Longitude: 092 10W

WEATHER
 
SELECT A DAY
Number of Records: 221,297;   Date Range: 1/1/95 - 7/29/14
 
SHARE

PRINT THIS DATA

[ ← Previous Day ]
WEATHER ALMANAC - JANUARY 9, 2013
[ Next Day → ]
[ °C ]   °F
Weather ElementAverageHighLow
Temperature39.6 °F53.1 °F (2:55 pm)30 °F (5:55 am)
Dewpoint27.3 °F33.1 °F (11:55 am)19.9 °F (2:55 pm)
Humidity64.5 %88 % (5:55 am)27 % (2:55 pm)
Barometer30.39 in30.48 in (6:55 pm)30.21 in (1:55 am)
Wind Speed5.7 mph9.2 mph (1:55 pm)
Weather ElementAverage
Visibility10 mi
Wind DirectionSSW (199.6 °)

Weather ElementTotal
Precipitation---
Heating Degree Days23.5 (Base 65)
Averaged from 23 records on January 9, 2013
WEATHER CONDITIONS BREAKOUT
WIND DIRECTION BREAKOUT
WEATHER BY HOUR - JANUARY 9, 2013
[ °C ]   °F
Local TimeTemperatureDewpointHumidityBarometerVisibilityWind DirectionWind SpeedGust SpeedPrecipitationEventsConditions
1:55 AM37.0 °F30.0 °F76 %30.21 in10.0 miWest (270°)6.9 mphClear
2:55 AM36.0 °F28.9 °F76 %30.24 in10.0 miWest (260°)5.8 mphClear
3:55 AM35.1 °F28.9 °F78 %30.26 in10.0 miWSW (250°)4.6 mphClear
4:55 AM33.1 °F28.0 °F82 %30.29 in10.0 miWSW (240°)3.5 mphClear
5:55 AM30.0 °F27.0 °F88 %30.31 in10.0 miWSW (240°)3.5 mphClear
6:55 AM30.2 °F26.6 °F86 %30.29 in10.0 miWest (260°)5.8 mphClear
7:55 AM32.0 °F28.0 °F85 %30.37 in10.0 miNW (310°)5.8 mphClear
8:55 AM33.8 °F28.4 °F81 %30.36 in10.0 miWest (270°)5.8 mphClear
9:55 AM37.9 °F30.9 °F76 %30.44 in10.0 miWNW (290°)6.9 mphClear
10:55 AM44.1 °F32.0 °F63 %30.45 in10.0 miNW (310°)6.9 mphClear
11:55 AM46.9 °F33.1 °F59 %30.44 in10.0 miNW (310°)8.1 mphClear
12:55 PM51.1 °F30.0 °F44 %30.42 in10.0 miNW (310°)6.9 mphClear
1:55 PM52.0 °F28.0 °F40 %30.42 in10.0 miNorth (360°)9.2 mphClear
2:55 PM53.1 °F19.9 °F27 %30.43 in10.0 miNorth (10°)5.8 mphClear
3:55 PM51.1 °F24.1 °F35 %30.44 in10.0 miENE (70°)3.5 mphClear
4:55 PM46.9 °F23.0 °F39 %30.45 in10.0 miCalmClear
5:55 PM39.0 °F25.0 °F57 %30.45 in10.0 miESE (120°)4.6 mphClear
6:55 PM39.0 °F23.0 °F53 %30.48 in10.0 miSE (130°)5.8 mphClear
7:55 PM39.2 °F24.8 °F56 %30.43 in10.0 miESE (110°)6.9 mphClear
8:55 PM37.9 °F26.1 °F62 %30.48 in10.0 miESE (110°)6.9 mphClear
9:55 PM37.0 °F27.0 °F67 %30.48 in10.0 miESE (120°)8.1 mphClear
10:55 PM35.1 °F28.0 °F76 %30.46 in10.0 miESE (110°)4.6 mphClear
11:55 PM33.1 °F27.0 °F78 %30.45 in10.0 miSE (130°)5.8 mphClear
Hourly data recorded from KIRK, located miles away from Edina, Missouri







STORIES FROM OUR PARTNERS